IRIDIUM 33 DEB, 46734

Orbit data source: Space-Track

IRIDIUM 33 DEB, 46734 is space debris in LEO originally from a launch on Sun, 14 Sep 1997 UTC launched from the Tyuratam Missile And Space Complex (TTMTR). The debris from Iridium 33, an American commercial communications satellite, has been tracked extensively since its accidental collision with the defunct Russian satellite Cosmos 2251 in 2009. This event, occurring at high speed in low Earth orbit (LEO), generated thousands of pieces of space debris, significantly increasing the risk of further collisions. The Iridium 33 debris cloud has impacted space traffic management and orbital debris mitigation strategies, making it a subject of ongoing study in space situational awareness.

Loading next visibility...
Identifier
46734, 1997-051ABR
Orbit
LEO
Country
Flag of USUS
Related business
Manufacturer
Unknown
Mission
Spacecraft
Bus & Motor
Unknown
Mass
Unknown
Launch date (UTC)
1997-09-14 (29 years ago)
Launch vehicle
Unknown
Launch site
Tyuratam Missile And Space Complex (TTMTR)
Object type
Payload
Rocket body
Debris
Shape & HBR
Unknown shape, 0.1 m
Radar Cross Section
Small (<0.1 m²)

Expand to show TLE details & history
Last TLE update: 6 days ago

TLE from 6 days ago
0 IRIDIUM 33 DEB
1 46734U 97051ABR 26167.06937596  .00002356  00000-0  68923-3 0  9990
2 46734  86.2610 281.4060 0041702  82.5123  90.6656 14.43094961656825
Epoch: 2026-06-16T01:39Z
TLE epoch observation values (Epoch: 2026-06-16T01:39:54.082Z)
Latitude
6.25017°
Longitude
171.67606°
Altitude
751.228 km
Speed
7.479 km/s
True Right ascension
06h 43m 59s
True Declination
6° 12' 47"
Sunlit
Object was in daylight at epoch
Visualization orbit readout
Latitude
Unknown
Longitude
Unknown
Altitude
Unknown
Speed
Unknown
Apparent Right ascension
Unknown
Apparent Declination
Unknown
Sunlit
N/A
Visualization observer readout
Local Sidereal Time
21:39:08
Azimuth
Unknown
Elevation
Unknown
Doppler factor
Unknown
Orbital elements
Apogee altitude
774.952 km
Perigee altitude
715.54 km
Semi-major axis
7,123.383 km
Eccentricity
0.00417
Inclination
86.261°
RAAN
281.406°
Arg. of periapsis
82.5123°
True anomaly
91.1434°
Mean anomaly
90.6656°
Eccentric anomaly
90.90451°
Mean motion
3.61005 °/min
Orbital period
99.72 mins
BSTAR
0.00068923
Loading maneuver chart data...
Computing Atmospheric mass density...

Documentation

Showing up to 5 results
|